When you browse on this site, cookies collect data to enhance your experience and personalize the content and advertising you see.
Visit our Privacy Policy to learn more. By continuing to use the site, you agree to this use of cookies and data.
  • In Germany
  • List of Countries
  • For 7 days
  • Water Temperature
  • Weather Map
  • Weather Widgets
  • user-avatar
    Login

    Hourly Weather Benguela

    Today, 25 August, Sunday

    Time Temperature Precipitation Wind Pressure Humidity
    00:00 +20°C° 0 mm 1 mps 761 mmHg 89%
    01:00 +19°C° 0 mm 1 mps 762 mmHg 88%
    02:00 +19°C° 0 mm 1 mps 761 mmHg 87%
    03:00 +19°C° 0 mm 1 mps 761 mmHg 85%
    04:00 +19°C° 0 mm 1 mps 760 mmHg 84%
    05:00 +20°C° 0 mm 1 mps 761 mmHg 80%
    06:00 +21°C° 0 mm 1 mps 761 mmHg 75%
    07:00 +20°C° 0 mm 0 mps 762 mmHg 70%
    08:00 +24°C° 0 mm 1 mps 761 mmHg 61%
    09:00 +27°C° 0 mm 2 mps 761 mmHg 51%
    10:00 +30°C° 0 mm 2 mps 761 mmHg 41%
    11:00 +30°C° 0 mm 3 mps 760 mmHg 43%
    12:00 +30°C° 0 mm 3 mps 759 mmHg 44%
    13:00 +32°C° 0 mm 4 mps 759 mmHg 46%
    14:00 +30°C° 0 mm 4 mps 758 mmHg 48%
    15:00 +29°C° 0 mm 4 mps 758 mmHg 50%
    16:00 +28°C° 0 mm 3 mps 757 mmHg 53%
    17:00 +26°C° 0 mm 3 mps 758 mmHg 65%
    18:00 +24°C° 0 mm 2 mps 759 mmHg 77%
    19:00 +21°C° 0 mm 1 mps 760 mmHg 89%
    20:00 +21°C° 0 mm 1 mps 760 mmHg 90%
    21:00 +21°C° 0 mm 1 mps 761 mmHg 90%
    22:00 +20°C° 0 mm 1 mps 761 mmHg 91%
    23:00 +20°C° 0 mm 1 mps 761 mmHg 90%

    Tomorrow, 26 August, Monday

    Time Temperature Precipitation Wind Pressure Humidity
    00:00 +20°C° 0 mm 1 mps 762 mmHg 89%
    01:00 +19°C° 0 mm 1 mps 762 mmHg 88%
    02:00 +19°C° 0 mm 1 mps 761 mmHg 88%
    03:00 +19°C° 0 mm 1 mps 761 mmHg 88%
    04:00 +18°C° 0 mm 1 mps 761 mmHg 88%
    05:00 +19°C° 0 mm 1 mps 761 mmHg 85%
    06:00 +20°C° 0 mm 1 mps 762 mmHg 82%
    07:00 +21°C° 0 mm 1 mps 762 mmHg 79%
    08:00 +23°C° 0 mm 1 mps 762 mmHg 70%
    09:00 +26°C° 0 mm 2 mps 762 mmHg 60%
    10:00 +28°C° 0 mm 3 mps 762 mmHg 50%
    11:00 +29°C° 0 mm 3 mps 761 mmHg 50%
    12:00 +29°C° 0 mm 4 mps 760 mmHg 50%
    13:00 +30°C° 0 mm 4 mps 760 mmHg 50%
    14:00 +29°C° 0 mm 4 mps 759 mmHg 52%
    15:00 +28°C° 0 mm 3 mps 759 mmHg 54%
    16:00 +27°C° 0 mm 3 mps 759 mmHg 56%
    17:00 +25°C° 0 mm 2 mps 759 mmHg 67%
    18:00 +23°C° 0 mm 2 mps 760 mmHg 79%
    19:00 +21°C° 0 mm 1 mps 761 mmHg 90%
    20:00 +21°C° 0 mm 1 mps 761 mmHg 90%
    21:00 +21°C° 0 mm 1 mps 762 mmHg 90%
    22:00 +21°C° 0 mm 1 mps 762 mmHg 89%
    23:00 +20°C° 0 mm 1 mps 762 mmHg 90%

    Day after tomorrow, 27 August, Tuesday

    Time Temperature Precipitation Wind Pressure Humidity
    00:00 +20°C° 0 mm 1 mps 762 mmHg 91%
    01:00 +19°C° 0 mm 1 mps 762 mmHg 91%
    02:00 +19°C° 0 mm 1 mps 762 mmHg 91%
    03:00 +18°C° 0 mm 1 mps 761 mmHg 90%
    04:00 +16°C° 0 mm 0 mps 761 mmHg 90%
    05:00 +17°C° 0 mm 0 mps 761 mmHg 85%
    06:00 +18°C° 0 mm 0 mps 762 mmHg 80%
    07:00 +19°C° 0 mm 0 mps 762 mmHg 75%
    08:00 +24°C° 0 mm 1 mps 762 mmHg 65%
    09:00 +26°C° 0 mm 1 mps 762 mmHg 54%
    10:00 +29°C° 0 mm 2 mps 761 mmHg 44%
    11:00 +29°C° 0 mm 3 mps 761 mmHg 44%
    12:00 +30°C° 0 mm 4 mps 760 mmHg 45%
    13:00 +30°C° 0 mm 4 mps 759 mmHg 45%
    14:00 +29°C° 0 mm 4 mps 759 mmHg 49%
    15:00 +28°C° 0 mm 4 mps 758 mmHg 53%
    16:00 +27°C° 0 mm 3 mps 758 mmHg 57%
    17:00 +25°C° 0 mm 3 mps 759 mmHg 67%
    18:00 +23°C° 0 mm 2 mps 759 mmHg 78%
    19:00 +21°C° 0 mm 1 mps 760 mmHg 89%
    20:00 +21°C° 0 mm 1 mps 760 mmHg 90%
    21:00 +20°C° 0 mm 1 mps 761 mmHg 91%
    22:00 +19°C° 0 mm 2 mps 761 mmHg 92%
    23:00 +19°C° 0 mm 1 mps 761 mmHg 92%

    28 August, Wednesday

    Time Temperature Precipitation Wind Pressure Humidity
    00:00 +19°C° 0 mm 1 mps 761 mmHg 93%
    01:00 +18°C° 0 mm 1 mps 760 mmHg 93%
    02:00 +18°C° 0 mm 1 mps 760 mmHg 93%
    03:00 +18°C° 0 mm 1 mps 760 mmHg 93%
    04:00 +18°C° 0 mm 1 mps 760 mmHg 93%
    05:00 +17°C° 0 mm 0 mps 760 mmHg 87%
    06:00 +18°C° 0 mm 0 mps 760 mmHg 82%
    07:00 +19°C° 0 mm 0 mps 760 mmHg 76%
    08:00 +24°C° 0 mm 1 mps 760 mmHg 67%
    09:00 +26°C° 0 mm 2 mps 760 mmHg 57%
    10:00 +29°C° 0 mm 3 mps 760 mmHg 47%
    11:00 +29°C° 0 mm 3 mps 759 mmHg 49%
    12:00 +29°C° 0 mm 4 mps 758 mmHg 51%
    13:00 +29°C° 0 mm 4 mps 757 mmHg 53%
    14:00 +28°C° 0 mm 4 mps 757 mmHg 56%
    15:00 +27°C° 0 mm 4 mps 757 mmHg 59%
    16:00 +26°C° 0 mm 3 mps 757 mmHg 62%
    17:00 +25°C° 0 mm 3 mps 757 mmHg 71%
    18:00 +23°C° 0 mm 2 mps 758 mmHg 79%
    19:00 +21°C° 0 mm 1 mps 759 mmHg 88%
    20:00 +21°C° 0 mm 1 mps 759 mmHg 87%
    21:00 +19°C° 0 mm 0 mps 760 mmHg 86%
    22:00 +19°C° 0 mm 0 mps 760 mmHg 85%
    23:00 +19°C° 0 mm 0 mps 760 mmHg 87%

    29 August, Thursday

    Time Temperature Precipitation Wind Pressure Humidity
    00:00 +20°C° 0 mm 1 mps 760 mmHg 90%
    01:00 +19°C° 0 mm 1 mps 760 mmHg 92%
    02:00 +19°C° 0 mm 1 mps 759 mmHg 93%
    03:00 +18°C° 0 mm 1 mps 759 mmHg 93%
    04:00 +16°C° 0 mm 0 mps 759 mmHg 94%
    05:00 +19°C° 0 mm 1 mps 760 mmHg 92%
    06:00 +20°C° 0 mm 1 mps 760 mmHg 90%
    07:00 +21°C° 0 mm 1 mps 761 mmHg 88%
    08:00 +21°C° 0 mm 2 mps 761 mmHg 80%
    09:00 +24°C° 0 mm 2 mps 761 mmHg 72%
    10:00 +26°C° 0 mm 2 mps 761 mmHg 64%
    11:00 +27°C° 0 mm 3 mps 760 mmHg 60%
    12:00 +28°C° 0 mm 3 mps 759 mmHg 56%
    13:00 +29°C° 0 mm 4 mps 758 mmHg 52%
    14:00 +28°C° 0 mm 4 mps 757 mmHg 55%
    15:00 +27°C° 0 mm 4 mps 757 mmHg 58%
    16:00 +27°C° 0 mm 3 mps 757 mmHg 61%
    17:00 +25°C° 0 mm 3 mps 758 mmHg 70%
    18:00 +23°C° 0 mm 2 mps 758 mmHg 78%
    19:00 +21°C° 0 mm 1 mps 759 mmHg 87%
    20:00 +21°C° 0 mm 1 mps 759 mmHg 87%
    21:00 +21°C° 0 mm 1 mps 760 mmHg 87%
    22:00 +19°C° 0 mm 0 mps 760 mmHg 87%
    23:00 +20°C° 0 mm 1 mps 760 mmHg 89%

    30 August, Friday

    Time Temperature Precipitation Wind Pressure Humidity
    00:00 +20°C° 0 mm 1 mps 760 mmHg 91%
    01:00 +19°C° 0 mm 1 mps 760 mmHg 93%
    02:00 +19°C° 0 mm 1 mps 760 mmHg 93%
    03:00 +18°C° 0 mm 1 mps 760 mmHg 93%
    04:00 +16°C° 0 mm 0 mps 760 mmHg 93%
    05:00 +19°C° 0 mm 1 mps 760 mmHg 91%
    06:00 +20°C° 0 mm 1 mps 761 mmHg 89%
    07:00 +20°C° 0 mm 2 mps 761 mmHg 87%
    08:00 +21°C° 0 mm 2 mps 761 mmHg 80%
    09:00 +24°C° 0 mm 2 mps 761 mmHg 73%
    10:00 +25°C° 0 mm 2 mps 761 mmHg 66%
    11:00 +26°C° 0 mm 3 mps 760 mmHg 61%
    12:00 +27°C° 0 mm 3 mps 759 mmHg 57%
    13:00 +29°C° 0 mm 4 mps 758 mmHg 52%
    14:00 +28°C° 0 mm 4 mps 758 mmHg 55%
    15:00 +27°C° 0 mm 4 mps 758 mmHg 58%
    16:00 +26°C° 0 mm 4 mps 758 mmHg 61%
    17:00 +25°C° 0 mm 3 mps 758 mmHg 68%
    18:00 +22°C° 0 mm 3 mps 759 mmHg 76%
    19:00 +21°C° 0 mm 2 mps 760 mmHg 83%
    20:00 +21°C° 0 mm 2 mps 760 mmHg 83%
    21:00 +21°C° 0 mm 2 mps 761 mmHg 83%
    22:00 +21°C° 0 mm 2 mps 761 mmHg 82%
    23:00 +21°C° 0 mm 2 mps 761 mmHg 81%
    Show more